Location: Columbus
(29.5618°N, 96.6770°W)
Time: 22:56:43
(UTC-05:00)

Daily predictions for brighter satellites

Satellite Brightness Start Highest point End
(mag) Time Altitude Azimuth Time Altitude Azimuth Time Altitude Azimuth
Centaur D-1AR AC-39 4.3 19:06:10 10° SW 19:11:33 43° SSE 19:40:40 10° E
ATLAS 3B R/B 4.4 20:42:15 10° SE 20:45:29 13° ESE 20:48:43 10° E
Cosmos 2278 Rocket 2.3 20:41:01 10° NNW 20:46:41 69° ENE 20:52:19 10° SSE
Fermi 4.3 20:46:14 10° WSW 20:50:07 41° S 20:53:59 10° ESE
BREEZE-M DEB (TANK) 4.1 20:46:03 10° NW 20:50:13 62° NE 21:06:15 10° SE
deb Centaur AC-2 4.4 20:48:13 10° WSW 20:52:53 72° SSE 20:58:32 10° E
OTV 4 1.7 20:52:00 10° W 20:54:42 32° SSW 20:57:24 10° SSE
CZ-2D R/B 3.4 20:55:03 10° SSE 20:58:52 59° ENE 21:02:43 10° N
SL-16 R/B 2.5 20:55:01 10° SSW 21:00:38 75° WNW 21:06:18 10° NNE
Cosmos 2251 Rocket 4.2 20:55:53 10° SSW 21:01:06 61° WNW 21:06:23 10° N
Atlas Centaur 2 2.9 20:54:28 10° WSW 21:01:18 70° SSE 21:09:32 10° E
ERS-1 Rocket 4.0 20:57:13 10° SE 21:01:28 29° ENE 21:05:44 10° NNE
Cosmos 2233 Rocket 4.0 20:56:06 10° N 21:02:21 83° E 21:08:31 10° S
Cosmos 2058 Rocket 3.9 20:59:07 10° NNE 21:03:02 32° E 21:06:45 11° SE
Cosmos 1666 4.4 21:01:18 10° NE 21:04:00 18° ENE 21:05:58 13° ESE
Cosmos 1500 3.4 21:01:40 10° N 21:05:32 78° W 21:09:24 10° S
Cosmos 2098 Rocket 3.4 21:07:07 10° NNW 21:10:49 63° W 21:15:31 10° S
ISS -3.4 21:08:07 10° SW 21:11:21 65° SE 21:14:35 10° NE
CZ-3C R/B 3.3 20:58:23 10° WSW 21:13:31 30° SSW 21:16:40 15° SE
Cosmos 1464 Rocket 4.4 21:08:08 10° N 21:13:57 43° E 21:19:22 12° SSE
Cosmos 1110 Rocket 4.0 21:11:01 10° N 21:16:16 65° ENE 21:20:59 12° SSE
Cosmos 1939 Rocket 4.3 21:16:38 16° ESE 21:18:39 22° ENE 21:21:53 10° NNE
deb Chang Zheng 4 3.6 21:15:01 10° NNE 21:19:20 58° ESE 21:23:37 10° S
Cosmos 1743 2.6 21:16:35 10° N 21:20:25 88° E 21:24:13 10° S
Cosmos 1606 Rocket 3.6 21:18:52 10° N 21:23:17 81° W 21:27:38 10° S
H-2A R/B 2.7 21:22:24 19° SE 21:24:57 38° ENE 21:28:57 10° N
COSMOS 2455 3.0 21:20:40 10° S 21:26:23 48° ESE 21:32:07 10° NE
SPOT 5 4.2 21:24:58 16° E 21:26:30 19° ENE 21:29:33 10° NNE
Meteor 1-23 Rocket 4.3 21:21:14 10° S 21:26:50 82° W 21:32:33 10° N
CZ-4 DEB 3.1 21:23:46 10° S 21:26:56 63° W 21:30:08 10° NNW
ALOS 2.5 21:23:08 10° S 21:27:47 73° WSW 21:32:27 10° NNW
Cosmos 1603 3.6 21:24:11 10° S 21:29:45 69° ESE 21:35:19 10° NNE
Cosmos 1626 Rocket 3.7 21:29:19 13° SSE 21:33:02 51° E 21:37:19 10° NNE
Cosmos 2034 Rocket 4.4 21:27:10 10° N 21:33:16 47° E 21:37:26 20° SSE
BREEZE-M DEB (TANK) 4.0 21:33:44 10° N 21:35:03 14° NE 21:35:26 14° NE
Meteor 2-9 Rocket 4.3 21:35:04 10° N 21:40:47 70° E 21:45:02 19° SSE
FENGYUN 3A 4.3 21:41:00 10° S 21:46:12 52° W 21:51:27 10° NNW
Cosmos 2228 3.0 21:42:03 10° N 21:46:27 73° E 21:48:44 28° SSE
ATLAS 3B CENTAUR R/B 4.5 21:45:30 10° SW 21:48:24 14° S 21:50:43 12° S
H-2A R/B 4.3 21:47:17 10° SSW 21:50:52 34° W 21:54:30 10° NNW
Cosmos 2297 4.1 21:46:12 10° NNW 21:51:50 61° WSW 21:56:05 18° S
Delta 168 3.1 21:48:45 10° WSW 21:52:07 46° S 21:52:53 40° SE
Cosmos 1943 3.6 21:50:37 25° SSE 21:53:16 41° ESE 21:58:33 10° NE
PSLV R/B 4.3 21:55:18 30° NE 21:55:18 30° NE 21:57:36 10° N
GEOS 3 Rocket 3.7 21:55:32 27° SSE 21:58:26 73° WSW 22:03:41 10° NW
Lacrosse 4 Rocket 3.4 22:03:03 15° ENE 22:03:03 15° ENE 22:03:55 10° NE
Cosmos 1190 Rocket 4.5 22:03:10 38° ESE 22:03:39 38° E 22:08:33 10° NNE
SeaSat 1 3.1 22:04:20 34° E 22:05:31 39° ENE 22:10:06 10° N
CZ-2C R/B 3.0 22:06:17 18° WSW 22:06:23 18° W 22:08:05 10° NW
OAO 3 Copernicus 4.3 22:05:38 10° WNW 22:10:41 74° NNE 22:12:17 43° E
UNK 4.2 22:05:42 10° NNE 22:11:14 82° ESE 22:15:21 20° S
Timation 1 Rocket 4.2 22:09:14 10° NNW 22:15:16 85° ENE 22:17:25 42° SSE
Milstar 3 Cent rocket 2.8 22:08:36 10° W 22:15:18 40° SSW 22:16:23 36° S
CZ-4B R/B 3.4 22:15:07 10° NNE 22:20:16 80° ESE 22:22:07 41° S
Cosmos 1302 Rocket 4.5 22:16:00 10° NNW 22:21:08 56° WSW 22:23:14 33° SSW
Cosmos 1461 2.8 22:22:09 10° NNW 22:26:14 82° W 22:26:14 82° W
ARGOS 3.6 22:33:16 45° ENE 22:33:26 45° ENE 22:38:34 10° N
ATLAS 3B R/B 2.9 22:27:37 10° SSW 22:35:19 89° SE 22:42:59 10° NNE
Abrixas rocket 4.0 22:37:15 10° NW 22:39:14 32° WNW 22:39:14 32° WNW
Cosmos 1825 Rocket 3.7 22:43:04 73° NW 22:43:04 73° NW 22:47:17 10° N
Cosmos 2369 Rocket 2.8 22:38:16 10° N 22:43:27 40° ENE 22:43:27 40° ENE
Envisat 3.9 22:45:43 34° SW 22:47:04 41° W 22:51:52 10° NNW
ISS 0.4 22:47:23 10° NW 22:48:05 10° NW 22:48:46 10° NNW
MetOp-B 4.2 22:48:20 60° SW 22:49:02 68° WSW 22:54:22 10° NNW
NOAA 11 4.3 22:49:51 59° ENE 22:49:51 59° ENE 22:54:57 10° N
USA 234 3.8 22:48:30 38° E 22:50:14 46° NE 22:56:26 10° NNW
Atlas Centaur 2 3.0 22:43:30 10° W 22:51:17 85° N 22:55:21 35° E
Cosmos 407 Rocket 3.4 22:51:26 87° WNW 22:51:26 87° WNW 22:56:41 10° NNE
SL-08 RB Rocket 4.5 22:59:24 46° NNE 22:59:24 46° NNE 23:02:42 10° N
SPOT 5 4.3 23:04:13 27° WSW 23:04:22 27° W 23:08:04 10° NW
Cosmos 2142 Rocket 4.4 23:02:12 10° N 23:08:27 79° W 23:08:49 76° SW
USA 238 DEB 3.8 23:13:44 62° ENE 23:13:44 62° ENE 23:19:52 10° NE
USA 238 3.8 23:13:55 60° ENE 23:13:55 60° ENE 23:19:57 10° NE
Meteor 1-22 Rocket 4.3 23:09:36 10° N 23:14:44 74° NNW 23:14:44 74° NNW
Cosmos 1634 Rocket 4.2 23:12:55 10° NNW 23:18:57 60° W 23:19:21 59° WSW
Terra 3.2 23:22:47 33° NNE 23:22:47 33° NNE 23:25:33 10° N
H-2A R/B 3.1 23:38:18 39° NNW 23:38:18 39° NNW 23:41:26 10° NNW
Lacrosse 4 Rocket 4.0 23:39:17 17° WNW 23:39:17 17° WNW 23:41:48 10° NNW
Cosmos 2279 Rocket 4.3 23:36:06 10° N 23:41:33 63° NW 23:41:33 63° NW
Cosmos 1943 Rocket 3.3 23:42:47 10° N 23:46:20 37° NNE 23:46:20 37° NNE
